This is the latest recevied weather packets stored in our database for station/object KD0KHX-10. If no packets are shown the sender has not sent any weather packets the latest 1 day(s).
| Time | Temp. | Humidity | Pressure | Rain* | Wind** | Luminosity | Snow |
|---|---|---|---|---|---|---|---|
| 1778020503 | 6.11° C | 81% | 1007.4 hPa | 0.25 mm | 1.79 m/s, 148° | - | - |
| 1778020203 | 6.11° C | 81% | 1007.5 hPa | 0.25 mm | 1.34 m/s, 155° | - | - |
| 1778019903 | 6.11° C | 81% | 1007.6 hPa | 0.25 mm | 0.89 m/s, 141° | - | - |
| 1778019603 | 6.11° C | 81% | 1007.6 hPa | 0.25 mm | 1.79 m/s, 120° | - | - |
| 1778019573 | 6.11° C | 81% | 1007.5 hPa | 0.25 mm | 1.79 m/s, 119° | - | - |
| 1778019137 | 6.11° C | 81% | 1007.6 hPa | 0.25 mm | 1.79 m/s, 131° | - | - |
| 1778018703 | 6.67° C | 81% | 1007.8 hPa | 0.25 mm | 1.34 m/s, 140° | - | - |
| 1778018672 | 6.67° C | 81% | 1007.8 hPa | 0.25 mm | 1.34 m/s, 140° | - | - |
| 1778018103 | 6.67° C | 81% | 1007.9 hPa | 0.51 mm | 1.34 m/s, 106° | - | - |
| 1778017937 | 6.67° C | 80% | 1007.9 hPa | 0.25 mm | 1.34 m/s, 101° | - | - |
| 1778017638 | 6.11° C | 80% | 1007.9 hPa | 0.25 mm | 1.79 m/s, 120° | - | - |
| 1778017337 | 6.11° C | 80% | 1007.9 hPa | 0.25 mm | 2.24 m/s, 119° | - | - |
| 1778016903 | 6.11° C | 80% | 1007.9 hPa | 0.25 mm | 2.68 m/s, 110° | - | - |
| 1778016603 | 6.11° C | 80% | 1007.9 hPa | 0.25 mm | 2.68 m/s, 115° | - | - |
| 1778016573 | 6.11° C | 80% | 1007.9 hPa | 0.25 mm | 2.68 m/s, 115° | - | - |
| 1778016003 | 6.67° C | 80% | 1008 hPa | 0.25 mm | 3.13 m/s, 93° | - | - |
| 1778015703 | 6.67° C | 80% | 1008.1 hPa | 0.25 mm | 2.68 m/s, 93° | - | - |
| 1778015537 | 6.67° C | 81% | 1008.1 hPa | 0.25 mm | 3.13 m/s, 94° | - | - |
| 1778015103 | 6.67° C | 81% | 1008.1 hPa | 0.25 mm | 3.13 m/s, 97° | - | - |
| 1778015072 | 6.67° C | 81% | 1008.1 hPa | 0.25 mm | 3.13 m/s, 96° | - | - |
| 1778014773 | 6.67° C | 81% | 1008.4 hPa | 0.25 mm | 2.68 m/s, 93° | - | - |
| 1778014203 | 6.67° C | 80% | 1008.4 hPa | 0 mm | 2.68 m/s, 89° | - | - |
| 1778014173 | 6.67° C | 80% | 1008.4 hPa | 0 mm | 2.68 m/s, 90° | - | - |
| 1778013738 | 6.67° C | 81% | 1008.4 hPa | 0 mm | 3.58 m/s, 84° | - | - |
| 1778013573 | 6.67° C | 80% | 1008.4 hPa | 0 mm | 3.58 m/s, 81° | - | - |
* Rain latest hour (hover to see other rain measurements)
** Current wind speed in m/s (hover to see current wind gust speed)